TimeCET,TemperatureF,Dew PointF,Humidity,Sea Level PressureIn,VisibilityMPH,Wind Direction,Wind SpeedMPH,Gust SpeedMPH,PrecipitationIn,Events,Conditions,WindDirDegrees,DateUTC
12:15 AM,30.2,19.4,64,30.04,-9999.0,ENE,6.9,-,N/A,,Clear,70,2012-12-09 23:15:00
12:45 AM,32.0,17.6,55,30.04,-9999.0,ENE,5.8,-,N/A,,Clear,60,2012-12-09 23:45:00
1:15 AM,28.4,21.2,74,30.04,-9999.0,ENE,1.2,-,N/A,,Clear,70,2012-12-10 00:15:00
1:45 AM,28.4,21.2,74,30.04,-9999.0,East,1.2,-,N/A,,Clear,80,2012-12-10 00:45:00
2:15 AM,30.2,21.2,69,30.04,-9999.0,East,1.2,-,N/A,,Clear,90,2012-12-10 01:15:00
2:45 AM,32.0,23.0,69,30.04,-9999.0,East,1.2,-,N/A,,Clear,90,2012-12-10 01:45:00
3:15 AM,32.0,23.0,69,30.01,-9999.0,East,1.2,-,N/A,,Clear,90,2012-12-10 02:15:00
3:45 AM,30.2,21.2,69,30.01,-9999.0,Calm,Calm,-,N/A,,Clear,0,2012-12-10 02:45:00
4:15 AM,30.2,21.2,69,30.01,-9999.0,East,2.3,-,N/A,,Clear,80,2012-12-10 03:15:00
4:45 AM,17.6,8.6,68,30.01,-9999.0,East,1.2,-,N/A,,Clear,80,2012-12-10 03:45:00
5:15 AM,24.8,15.8,69,29.98,6.2,East,2.3,-,N/A,,Scattered Clouds,100,2012-12-10 04:15:00
5:45 AM,33.8,24.8,70,29.95,6.2,SSE,1.2,-,N/A,,Mostly Cloudy,150,2012-12-10 04:45:00
6:15 AM,35.6,26.6,70,29.92,6.2,SE,2.3,-,N/A,,Mostly Cloudy,140,2012-12-10 05:15:00
6:45 AM,35.6,24.8,65,29.92,6.2,East,1.2,-,N/A,,Mostly Cloudy,100,2012-12-10 05:45:00
7:15 AM,33.8,24.8,70,29.92,6.2,East,1.2,-,N/A,,Mostly Cloudy,90,2012-12-10 06:15:00
7:45 AM,37.4,28.4,70,29.92,6.2,SE,2.3,-,N/A,,Mostly Cloudy,140,2012-12-10 06:45:00
8:15 AM,41.0,32.0,70,29.92,5.0,SSE,8.1,-,N/A,Rain,Light Rain,160,2012-12-10 07:15:00
8:45 AM,42.8,35.6,76,29.89,5.0,SSE,10.4,-,N/A,Rain,Light Rain,160,2012-12-10 07:45:00
9:15 AM,44.6,35.6,71,29.89,5.0,SSE,16.1,-,N/A,Rain,Light Rain,150,2012-12-10 08:15:00
9:45 AM,44.6,37.4,76,29.86,5.0,South,12.7,-,N/A,Rain,Light Rain,170,2012-12-10 08:45:00
10:15 AM,48.2,41.0,76,29.86,5.0,South,15.0,-,N/A,Rain,Light Rain,170,2012-12-10 09:15:00
10:45 AM,46.4,41.0,81,29.86,5.0,South,12.7,-,N/A,Rain,Light Rain,170,2012-12-10 09:45:00
11:15 AM,48.2,44.6,87,29.86,5.0,South,12.7,-,N/A,Rain,Light Rain,170,2012-12-10 10:15:00
11:45 AM,48.2,44.6,87,29.83,5.0,South,10.4,-,N/A,Rain,Light Rain,170,2012-12-10 10:45:00
12:15 PM,48.2,46.4,93,29.83,5.0,South,11.5,-,N/A,Rain,Light Rain,170,2012-12-10 11:15:00
12:45 PM,48.2,44.6,87,29.77,5.0,South,11.5,-,N/A,Rain,Light Rain,170,2012-12-10 11:45:00
1:15 PM,48.2,46.4,93,29.77,5.0,South,10.4,-,N/A,Rain,Light Rain,190,2012-12-10 12:15:00
1:45 PM,48.2,46.4,93,29.74,5.0,South,10.4,-,N/A,Rain,Light Rain,180,2012-12-10 12:45:00
2:15 PM,48.2,46.4,93,29.74,5.0,South,8.1,-,N/A,Rain,Light Rain,180,2012-12-10 13:15:00
2:45 PM,50.0,48.2,94,29.71,5.0,SSW,5.8,-,N/A,Rain,Light Rain,200,2012-12-10 13:45:00
3:15 PM,50.0,46.4,87,29.71,5.0,SW,5.8,-,N/A,Rain,Light Rain,220,2012-12-10 14:15:00
3:45 PM,50.0,46.4,87,29.71,5.0,SW,8.1,-,N/A,Rain,Light Rain,220,2012-12-10 14:45:00
4:15 PM,50.0,46.4,87,29.68,5.0,SW,6.9,-,N/A,,Mostly Cloudy,220,2012-12-10 15:15:00
4:45 PM,50.0,46.4,87,29.68,5.0,SSW,6.9,-,N/A,,Mostly Cloudy,210,2012-12-10 15:45:00
5:15 PM,50.0,46.4,87,29.68,5.0,South,8.1,-,N/A,Rain,Light Rain,190,2012-12-10 16:15:00
5:45 PM,50.0,46.4,87,29.65,5.0,SSW,6.9,-,N/A,Rain,Light Rain,210,2012-12-10 16:45:00
6:15 PM,50.0,46.4,87,29.62,3.7,SSW,9.2,-,N/A,Rain,Light Rain,200,2012-12-10 17:15:00
6:45 PM,48.2,46.4,93,29.62,4.3,South,5.8,-,N/A,,Scattered Clouds,170,2012-12-10 17:45:00
7:15 PM,46.4,44.6,93,29.62,5.0,SSE,5.8,-,N/A,,Partly Cloudy,160,2012-12-10 18:15:00
7:45 PM,46.4,44.6,93,29.62,5.0,South,5.8,-,N/A,,Partly Cloudy,170,2012-12-10 18:45:00
8:15 PM,48.2,46.4,93,29.59,5.0,South,4.6,-,N/A,Rain,Light Rain,180,2012-12-10 19:15:00
8:45 PM,44.6,42.8,93,29.62,3.7,North,13.8,28.8,N/A,Rain,Light Rain,360,2012-12-10 19:45:00
9:15 PM,44.6,41.0,87,29.62,5.0,NNE,8.1,-,N/A,,Scattered Clouds,20,2012-12-10 20:15:00
9:45 PM,42.8,41.0,93,29.65,6.2,NNE,4.6,-,N/A,,Scattered Clouds,20,2012-12-10 20:45:00
10:15 PM,42.8,41.0,93,29.65,6.2,North,6.9,-,N/A,,Partly Cloudy,350,2012-12-10 21:15:00
10:45 PM,41.0,39.2,93,29.65,6.2,NNW,10.4,-,N/A,,Scattered Clouds,340,2012-12-10 21:45:00
11:15 PM,42.8,39.2,87,29.68,6.2,NE,4.6,-,N/A,,Scattered Clouds,40,2012-12-10 22:15:00
11:45 PM,42.8,39.2,87,29.68,6.2,North,3.5,-,N/A,,Scattered Clouds,0,2012-12-10 22:45:00